Página principal
METAR-TAF:

METAR-TAF

Aeroportos :

Grand Prairie Municipal Airport

Grand Prairie, Texas, Estados Unidos

latitude: 32-41-55N, longitude: 097-02-48W, altura: 180 m

Observação actual do tempo

O boletim foi feito há 34 minutos, às 19:50 UTC
Vento 11 kt de norte com rajadas de 18 kt
Temperatura 21°C
Humidade 43%
Pressão 1023 hPa
Visibilidade: 16.1 km
Céu limpo

METAR: KGPM 251950Z 36011G18KT 10SM SKC 21/08 A3022

Hora: 15:24 (20:24 UTC)


TAF: em falta

Observações e previsões do tempo de mais de 4000 aeroportos (mensagens METAR e TAF).

As estações disponíveis são os pontos amarelos e vermelhos sobre o mapa.

Mova o rato sobre o mapa para ver o nome da estação.

Depois clique no ponto para visualizar as observações e previsões meteorológicas.

Para alterar o mapa : clique nos botões verdes com uma cruz preta para aumentar o zoom; no botão verde com uma pitada de zoom; ou nas setas verdes para mapas adjacentes.


METAR-TAF: